TimeCST,TemperatureF,Dew PointF,Humidity,Sea Level PressureIn,VisibilityMPH,Wind Direction,Wind SpeedMPH,Gust SpeedMPH,PrecipitationIn,Events,Conditions,WindDirDegrees,DateUTC
12:15 AM,57.2,55.4,94,30.06,7.0,Calm,Calm,-,N/A,,Clear,0,2012-12-04 06:15:00
12:35 AM,57.2,55.4,94,30.06,8.0,Calm,Calm,-,N/A,,Clear,0,2012-12-04 06:35:00
12:55 AM,55.4,55.4,100,30.07,7.0,Calm,Calm,-,N/A,,Clear,0,2012-12-04 06:55:00
1:15 AM,55.4,55.4,100,30.07,4.0,Calm,Calm,-,N/A,,Clear,0,2012-12-04 07:15:00
1:35 AM,57.2,55.4,94,30.07,4.0,Calm,Calm,-,N/A,,Clear,0,2012-12-04 07:35:00
1:55 AM,55.4,55.4,100,30.07,4.0,Calm,Calm,-,N/A,,Clear,0,2012-12-04 07:55:00
2:15 AM,55.4,55.4,100,30.07,1.0,Calm,Calm,-,N/A,,Clear,0,2012-12-04 08:15:00
2:55 AM,57.2,55.4,94,30.09,5.0,Calm,Calm,-,N/A,,Clear,0,2012-12-04 08:55:00
3:15 AM,57.2,55.4,94,30.08,5.0,Calm,Calm,-,N/A,,Clear,0,2012-12-04 09:15:00
3:35 AM,55.4,55.4,100,30.08,4.0,Calm,Calm,-,N/A,,Clear,0,2012-12-04 09:35:00
3:55 AM,55.4,55.4,100,30.09,0.8,Calm,Calm,-,N/A,,Unknown,0,2012-12-04 09:55:00
4:15 AM,55.4,55.4,100,30.09,4.0,Calm,Calm,-,N/A,,Scattered Clouds,0,2012-12-04 10:15:00
4:35 AM,57.2,55.4,94,30.10,5.0,Calm,Calm,-,N/A,,Overcast,0,2012-12-04 10:35:00
4:55 AM,57.2,57.2,100,30.10,5.0,Calm,Calm,-,N/A,,Overcast,0,2012-12-04 10:55:00
5:15 AM,57.2,57.2,100,30.10,5.0,Calm,Calm,-,N/A,,Overcast,0,2012-12-04 11:15:00
5:35 AM,57.2,57.2,100,30.11,6.0,SW,3.5,-,N/A,,Overcast,220,2012-12-04 11:35:00
5:55 AM,57.2,55.4,94,30.12,6.0,Calm,Calm,-,N/A,,Mostly Cloudy,0,2012-12-04 11:55:00
6:15 AM,57.2,55.4,94,30.13,5.0,Calm,Calm,-,N/A,,Mostly Cloudy,0,2012-12-04 12:15:00
6:35 AM,57.2,55.4,94,30.13,5.0,Calm,Calm,-,N/A,,Overcast,0,2012-12-04 12:35:00
6:55 AM,57.2,57.2,100,30.15,5.0,North,4.6,-,N/A,,Overcast,350,2012-12-04 12:55:00
7:15 AM,59.0,57.2,94,30.16,8.0,NNW,9.2,-,N/A,,Overcast,340,2012-12-04 13:15:00
7:35 AM,59.0,53.6,82,30.18,10.0,NNW,8.1,-,N/A,,Overcast,340,2012-12-04 13:35:00
7:55 AM,57.2,48.2,72,30.19,10.0,North,9.2,-,N/A,,Mostly Cloudy,350,2012-12-04 13:55:00
8:15 AM,57.2,44.6,63,30.21,10.0,North,10.4,-,N/A,,Overcast,360,2012-12-04 14:15:00
8:35 AM,59.0,42.8,55,30.22,10.0,North,10.4,-,N/A,,Overcast,360,2012-12-04 14:35:00
8:55 AM,59.0,42.8,55,30.23,10.0,North,9.2,-,N/A,,Mostly Cloudy,360,2012-12-04 14:55:00
9:15 AM,59.0,42.8,55,30.24,10.0,North,8.1,-,N/A,,Mostly Cloudy,360,2012-12-04 15:15:00
9:35 AM,60.8,42.8,52,30.25,10.0,North,8.1,-,N/A,,Overcast,10,2012-12-04 15:35:00
9:55 AM,60.8,42.8,52,30.26,10.0,North,6.9,-,N/A,,Overcast,10,2012-12-04 15:55:00
10:15 AM,60.8,42.8,52,30.26,10.0,North,8.1,-,N/A,,Overcast,360,2012-12-04 16:15:00
10:35 AM,60.8,42.8,52,30.26,10.0,North,4.6,-,N/A,,Overcast,10,2012-12-04 16:35:00
10:55 AM,60.8,42.8,52,30.27,10.0,NNE,4.6,-,N/A,,Scattered Clouds,20,2012-12-04 16:55:00
11:15 AM,64.4,42.8,45,30.26,10.0,Calm,Calm,-,N/A,,Clear,0,2012-12-04 17:15:00
11:35 AM,66.2,42.8,43,30.25,10.0,Calm,Calm,-,N/A,,Clear,0,2012-12-04 17:35:00
11:55 AM,68.0,42.8,40,30.24,10.0,NNW,4.6,-,N/A,,Clear,340,2012-12-04 17:55:00
12:15 PM,68.0,42.8,40,30.23,10.0,NW,3.5,-,N/A,,Clear,310,2012-12-04 18:15:00
12:35 PM,71.6,42.8,35,30.22,10.0,NNE,9.2,-,N/A,,Clear,20,2012-12-04 18:35:00
12:55 PM,71.6,42.8,35,30.21,10.0,North,6.9,-,N/A,,Clear,350,2012-12-04 18:55:00
1:15 PM,71.6,44.6,38,30.21,10.0,North,11.5,-,N/A,,Clear,350,2012-12-04 19:15:00
1:35 PM,71.6,44.6,38,30.20,10.0,NNE,5.8,-,N/A,,Clear,20,2012-12-04 19:35:00
1:55 PM,71.6,42.8,35,30.20,10.0,North,10.4,-,N/A,,Clear,10,2012-12-04 19:55:00
2:15 PM,73.4,42.8,33,30.19,10.0,North,12.7,18.4,N/A,,Clear,350,2012-12-04 20:15:00
2:35 PM,73.4,42.8,33,30.20,10.0,North,11.5,16.1,N/A,,Clear,360,2012-12-04 20:35:00
2:55 PM,75.2,42.8,31,30.19,10.0,North,10.4,17.3,N/A,,Clear,360,2012-12-04 20:55:00
3:15 PM,75.2,42.8,31,30.19,10.0,NNE,8.1,-,N/A,,Clear,20,2012-12-04 21:15:00
3:35 PM,73.4,42.8,33,30.19,10.0,North,12.7,18.4,N/A,,Clear,350,2012-12-04 21:35:00
3:55 PM,73.4,42.8,33,30.19,10.0,North,12.7,17.3,N/A,,Clear,360,2012-12-04 21:55:00
4:15 PM,73.4,42.8,33,30.20,10.0,NNE,11.5,-,N/A,,Clear,20,2012-12-04 22:15:00
4:55 PM,71.6,42.8,35,30.21,10.0,NNE,10.4,-,N/A,,Clear,20,2012-12-04 22:55:00
5:15 PM,71.6,42.8,35,30.22,10.0,NNE,6.9,-,N/A,,Clear,30,2012-12-04 23:15:00
5:35 PM,69.8,42.8,38,30.22,10.0,North,6.9,-,N/A,,Clear,10,2012-12-04 23:35:00
5:55 PM,64.4,42.8,45,30.23,9.0,North,4.6,-,N/A,,Clear,360,2012-12-04 23:55:00
6:15 PM,62.6,42.8,48,30.24,10.0,North,4.6,-,N/A,,Clear,10,2012-12-05 00:15:00
6:35 PM,60.8,41.0,48,30.25,10.0,North,5.8,-,N/A,,Clear,360,2012-12-05 00:35:00
6:55 PM,60.8,41.0,48,30.26,10.0,North,5.8,-,N/A,,Clear,10,2012-12-05 00:55:00
7:15 PM,59.0,41.0,51,30.27,10.0,Calm,Calm,-,N/A,,Clear,0,2012-12-05 01:15:00
7:35 PM,59.0,39.2,48,30.27,10.0,Calm,Calm,-,N/A,,Clear,0,2012-12-05 01:35:00
7:55 PM,55.4,39.2,54,30.28,10.0,NNW,3.5,-,N/A,,Clear,340,2012-12-05 01:55:00
8:15 PM,57.2,39.2,51,30.28,10.0,NNW,3.5,-,N/A,,Clear,340,2012-12-05 02:15:00
8:35 PM,55.4,39.2,54,30.29,10.0,NNW,4.6,-,N/A,,Clear,340,2012-12-05 02:35:00
8:55 PM,53.6,39.2,58,30.29,10.0,NW,4.6,-,N/A,,Clear,320,2012-12-05 02:55:00
9:15 PM,53.6,39.2,58,30.29,10.0,Calm,Calm,-,N/A,,Clear,0,2012-12-05 03:15:00
9:35 PM,51.8,37.4,58,30.29,10.0,Calm,Calm,-,N/A,,Clear,0,2012-12-05 03:35:00
9:55 PM,51.8,35.6,54,30.29,10.0,WNW,5.8,-,N/A,,Clear,290,2012-12-05 03:55:00
10:15 PM,55.4,35.6,47,30.29,10.0,NW,5.8,-,N/A,,Clear,320,2012-12-05 04:15:00
10:35 PM,53.6,35.6,51,30.30,10.0,NW,5.8,-,N/A,,Clear,320,2012-12-05 04:35:00
10:55 PM,51.8,33.8,50,30.30,10.0,NW,3.5,-,N/A,,Clear,320,2012-12-05 04:55:00
11:15 PM,50.0,35.6,58,30.30,10.0,Calm,Calm,-,N/A,,Clear,0,2012-12-05 05:15:00
11:35 PM,46.4,35.6,66,30.31,10.0,Calm,Calm,-,N/A,,Clear,0,2012-12-05 05:35:00
11:55 PM,44.6,35.6,71,30.31,10.0,Calm,Calm,-,N/A,,Clear,0,2012-12-05 05:55:00